Weather in Timofeyevka

Russia / Primorsky Krai     43°52′10″N   135°27′51″E
temp.,
°C
wind,
m/s
gust,
m/s
humid.,
%
clouds,
%
prec.,
mm/h
press.,
hPa
HPBL,
m
13 may, thu
thu1301:00+6ssw5897100 1.8 1017212
04:00+5ssw4896100 1.8 1016160
07:00+6ssw579569 0.0 1015154
10:00+7ssw569289 0.0 1015253
13:00+8ssw8108699 0.0 1013328
16:00+8ssw10138643 0.0 1011238
19:00+7ssw91385100 0.0 1011176
22:00+7sw45890 0.0 101245
14 may, fri
fri1401:00+8nw118423 0.0 101212
04:00+8wnw228335 0.0 101211
07:00+10wnw22760 0.0 101320
10:00+13sw12620 0.0 1013260
13:00+12ssw556371 0.0 1013824
16:00+11ssw69675 0.0 1012233
19:00+10sw697538 0.0 101386
22:00+9sw6983100 0.0 101481
15 may, sat
sat1501:00+9ssw61086100 0.0 101394
04:00+8sw61188100 0.0 1013122
07:00+8ssw91697100 0.0 1011266
10:00+9ssw101691100 0.0 1010302
13:00+10ssw121687100 0.0 1008280
16:00+10ssw131990100 0.0 1005266
19:00+10sw799394 0.0 1006102
22:00+9s2292100 0.2 100912
16 may, sun
sun1601:00+9ese0195100 0.2 100913
04:00+9sw1292100 0.3 100910
07:00+9wsw1191100 0.1 101010
10:00+10wsw3389100 0.1 101034
13:00+10sw5684100 0.1 1008117
16:00+9sw6890100 0.4 1007129
19:00+8sw4697100 0.9 100788
22:00+8sw3398100 1.4 100638
17 may, mon
mon1701:00+9wsw2294100 0.0 100514
04:00+9nw2288100 0.0 100412
07:00+9nw2277100 0.0 100425
10:00+13sw13613 0.0 1004282
13:00+11ssw766653 0.0 1004688
16:00+10ssw8117234 0.0 1004192
19:00+11sw813735 0.0 1006128
22:00+10wsw337633 0.0 100820